Tracking 35055 objects as of 18-Aug-2026
HD Live streaming from Space Station
objects crossing your sky now

KHORS-3

Track KHORS-3 now!
10-day predictions
KHORS-3 is classified as:


NORAD ID: 61753
Int'l Code: 2024-199U
Launch date: November 4, 2024
Source: (TBD)
Launch site: VOSTOCHNY COSMODROME (VOSTO)

Uplink (MHz):
Downlink (MHz): 435.650
Beacon (MHz):
Mode: 38k4 FSK
Call sign: RS81S
Status: Unknown


Uplink (MHz):
Downlink (MHz): 435.650
Beacon (MHz):
Mode: 38k4 FSK
Call sign: RS81S
Status: Unknown

Your satellite tracking list
Your tracking list is empty




NASA's NSSDC Master Catalog

Two Line Element Set (TLE):
1 61753U 24199U   26230.61723877  .00043936  00000-0  55802-3 0  9999
2 61753  97.2861 107.8657 0007616  64.3373 295.8670 15.59258035147278
Source of the keplerian elements: AFSPC